[[{"header":{"parameterUnit":"m.s-1","parameterCategory":1,"la1":30.2991,"la2":30.254,"lo1":-89.0895,"lo2":-89.0444,"dy":0.0017,"dx":0.0017,"nx":28,"ny":28,"refTime":"2025-11-06T03:00:00:Z","depth":0,"parameterNumber":2,"parameterNumberName":"U-component_of_WINDS"},"data":[0,0,0,0,0,0,0,0,0,0,0,0,0,0,0,0,0,0,0,0,0,0,0,0,0,0,0,0,0,0,0,0,0,0,0,0,0,0,0,0,0,0,0,0,0,0,0,0,0,0,0,0,0,0,0,0,0,0,-1.5012,-1.5011,0,-1.4976,-1.4976,-1.4976,-1.4887,-1.4885,-1.4883,-1.4881,-1.4849,-1.4849,-1.485,0,0,0,0,0,0,0,0,0,0,0,0,0,-1.5005,-1.5005,-1.5012,-1.5011,-1.5011,-1.4976,-1.4976,-1.4976,-1.4887,-1.4885,-1.4883,-1.488,-1.4848,-1.4849,-1.485,0,0,0,0,0,0,0,0,0,0,0,0,0,-1.4993,-1.5006,-1.5012,-1.4962,-1.4958,-1.4977,-1.4976,-1.4975,-1.4888,-1.4885,-1.4882,-1.4879,-1.4848,-1.4849,-1.4851,-1.4915,0,0,-1.4855,-1.4855,0,0,0,0,0,0,0,0,-1.4993,-1.4993,-1.497,-1.4966,-1.496,-1.4933,-1.4961,-1.4955,-1.4888,-1.4914,-1.4881,-1.4878,-1.4879,-1.4878,-1.4877,-1.4914,-1.4912,-1.4855,-1.4856,-1.4856,-1.4856,0,0,0,0,0,0,0,-1.4994,-1.4994,-1.4998,-1.497,-1.4964,-1.4943,-1.4938,-1.496,-1.4913,-1.4912,-1.4905,-1.4902,-1.4876,-1.4876,-1.4876,-1.4912,-1.4855,-1.4856,-1.4857,-1.4857,-1.5001,-1.5003,0,0,0,0,0,0,-1.5002,-1.4995,-1.4999,-1.4997,-1.497,-1.4945,-1.494,-1.4945,-1.4913,-1.4905,-1.4905,-1.4898,-1.4876,-1.4875,-1.4875,-1.4949,-1.4856,-1.4857,-1.4858,-1.4998,-1.5001,-1.5005,0,0,0,0,0,0,-1.5002,-1.5003,-1.5,-1.4994,-1.4992,-1.4948,-1.4955,-1.4946,-1.4946,-1.4907,-1.4899,-1.4914,-1.4873,-1.4873,-1.4906,-1.4947,-1.4858,-1.4859,-1.4994,-1.4999,-1.5003,-1.5099,0,0,0,0,0,0,-1.5002,-1.5004,-1.5027,-1.4995,-1.4993,-1.5032,-1.4957,-1.4947,-1.4948,-1.4939,-1.4913,-1.4906,-1.4871,-1.4904,-1.4907,-1.4947,-1.486,-1.499,-1.4996,-1.5001,-1.5092,-1.5106,-1.5119,0,0,0,0,0,-1.5002,-1.5056,-1.5029,-1.503,-1.5021,-1.5034,-1.5033,-1.499,-1.4952,-1.4976,-1.4951,-1.4907,-1.4942,-1.4909,-1.4911,-1.4952,-1.4988,-1.4994,-1.5001,-1.5086,-1.5104,-1.5118,0,0,0,0,0,0,-1.5096,-1.5051,-1.5021,-1.5066,-1.5054,-1.5019,-1.5048,-1.501,-1.501,-1.5002,-1.495,-1.4945,-1.4986,-1.4972,-1.4936,-1.5013,-1.4957,-1.4965,-1.5021,-1.5038,-1.5051,-1.5054,-1.4861,0,0,0,0,0,-1.5121,-1.5135,-1.5095,-1.5139,-1.5135,-1.5093,-1.5097,-1.5065,-1.5051,-1.5046,-1.5024,-1.5013,-1.5022,-1.5028,-1.5034,-1.5089,-1.5083,-1.5118,-1.5132,-1.5143,-1.5151,-1.518,-1.5196,-1.5027,-1.5027,-1.5027,0,0,-1.5175,-1.5152,-1.5164,-1.5157,-1.5145,-1.5161,-1.5089,-1.5109,-1.5121,-1.5049,-1.508,-1.5063,-1.5048,-1.5092,-1.5111,-1.5082,-1.5195,-1.5151,-1.516,-1.5162,-1.5188,-1.5204,-1.5219,-1.5031,-1.5031,-1.503,0,0,-1.5281,-1.5265,-1.53,-1.5288,-1.5269,-1.5241,-1.5249,-1.522,-1.5206,-1.5235,-1.5182,-1.5195,-1.521,-1.5202,-1.52,-1.5302,-1.5263,-1.5305,-1.5375,-1.5404,-1.5418,-1.5429,-1.5467,-1.5482,-1.5313,-1.5313,-1.5313,0,-1.5351,-1.5372,-1.5323,-1.5346,-1.5345,-1.528,-1.5315,-1.5307,-1.5292,-1.5293,-1.526,-1.5278,-1.5263,-1.5306,-1.5331,-1.533,-1.534,-1.5309,-1.5419,-1.5431,-1.5441,-1.5477,-1.5491,-1.5319,-1.5318,-1.5317,-1.5317,0,-1.5459,-1.5474,-1.5504,-1.549,-1.5492,-1.5522,-1.5478,-1.5487,-1.5454,-1.543,-1.546,-1.544,-1.5441,-1.5448,-1.5417,-1.5486,-1.5469,-1.5429,-1.5372,-1.5463,-1.5496,-1.5509,-1.5326,-1.5324,-1.5323,-1.5321,0,0,-1.5625,-1.5582,-1.5594,-1.5587,-1.5561,-1.5573,-1.5599,-1.5599,-1.5608,-1.5599,-1.5621,-1.5635,-1.5598,-1.5595,-1.5562,-1.5588,-1.5672,-1.5544,-1.5543,-1.557,-1.5749,-1.5781,-1.5798,-1.5644,-1.5647,-1.5649,-1.5751,0,-1.5726,-1.5768,-1.5725,-1.5776,-1.5791,-1.5728,-1.5751,-1.5739,-1.5716,-1.5726,-1.5701,-1.5712,-1.5661,-1.5659,-1.5681,-1.5657,-1.5707,-1.5649,-1.5666,-1.5668,-1.5674,-1.5814,-1.5848,-1.5945,-1.5763,-1.5765,-1.5767,0,-1.585,-1.5846,-1.5899,-1.587,-1.5874,-1.5896,-1.5892,-1.5901,-1.5886,-1.5868,-1.5865,-1.5825,-1.585,-1.5793,-1.5828,-1.5789,-1.5793,-1.5782,-1.5785,-1.5787,-1.5724,-1.5822,-1.5975,-1.5991,-1.5786,-1.5785,-1.5783,0,-1.5968,-1.5976,-1.6009,-1.6004,-1.5971,-1.5988,-1.5975,-1.5956,-1.5959,-1.5956,-1.5957,-1.5957,-1.5958,-1.596,-1.5921,-1.5883,-1.5961,-1.5901,-1.5948,-1.595,-1.597,-1.5969,-1.6128,-1.5969,-1.5969,-1.5969,-1.5969,0,-1.6087,-1.6122,-1.6061,-1.6082,-1.612,-1.6069,-1.6109,-1.6089,-1.6073,-1.609,-1.6036,-1.6053,-1.5999,-1.6011,-1.5981,-1.6015,-1.6015,-1.6003,-1.5995,-1.6009,-1.6011,-1.6012,-1.6006,-1.5973,-1.5972,-1.5971,-1.597,0,-1.6226,-1.6186,-1.6218,-1.6183,-1.6175,-1.6205,-1.6176,-1.6194,-1.6167,-1.6189,-1.6191,-1.6149,-1.616,-1.6121,-1.6126,-1.6105,-1.6157,-1.6136,-1.6162,-1.6156,-1.6207,-1.6204,-1.6374,-1.6395,-1.6222,-1.6223,-1.6225,0,-1.6306,-1.6331,-1.6298,-1.6305,-1.6295,-1.6306,-1.6308,-1.6259,-1.6264,-1.6248,-1.6268,-1.6274,-1.6277,-1.6297,-1.6268,-1.6272,-1.6252,-1.6312,-1.6253,-1.6266,-1.6256,-1.6256,-1.6259,-1.6325,-1.6327,-1.6329,-1.633,0,-1.6451,-1.643,-1.6435,-1.6432,-1.6436,-1.6432,-1.6425,-1.6434,-1.6381,-1.6389,-1.6399,-1.6401,-1.6405,-1.6412,-1.6409,-1.6397,-1.6356,-1.6349,-1.636,-1.6376,-1.6391,-1.6385,-1.6198,-1.6346,-1.6344,-1.6343,-1.6342,-1.6342,-1.6564,-1.6584,-1.6565,-1.6571,-1.656,-1.6555,-1.657,-1.6545,-1.6551,-1.655,-1.6521,-1.6537,-1.6521,-1.6513,-1.6505,-1.6517,-1.649,-1.6506,-1.6511,-1.6516,-1.6526,-1.6387,-1.6516,-1.6516,-1.6515,-1.6515,-1.6515,0,-1.6709,-1.6693,-1.6699,-1.669,-1.6696,-1.6654,-1.6644,-1.6652,-1.6666,-1.6654,-1.6657,-1.6669,-1.6676,-1.6647,-1.665,-1.6666,-1.6647,-1.6669,-1.6668,-1.6666,-1.6549,-1.654,-1.6684,-1.6684,-1.6684,-1.6684,-1.6683,-1.6683,-1.6785,-1.6817,-1.6794,-1.682,-1.6804,-1.6818,-1.6816,-1.6811,-1.6801,-1.6816,-1.6821,-1.6801,-1.6783,-1.6784,-1.6789,-1.678,-1.6785,-1.6813,-1.6799,-1.6691,-1.6674,-1.6659,-1.665,-1.6814,-1.6814,-1.6915,-1.6916,-1.6917]},{"header":{"parameterUnit":"m.s-1","parameterCategory":1,"la1":30.2991,"la2":30.254,"lo1":-89.0895,"lo2":-89.0444,"dy":0.0017,"dx":0.0017,"nx":28,"ny":28,"refTime":"2025-11-06T03:00:00:Z","depth":0,"parameterNumber":3,"parameterNumberName":"V-component_of_WINDS"},"data":[0,0,0,0,0,0,0,0,0,0,0,0,0,0,0,0,0,0,0,0,0,0,0,0,0,0,0,0,0,0,0,0,0,0,0,0,0,0,0,0,0,0,0,0,0,0,0,0,0,0,0,0,0,0,0,0,0,0,-1.9005,-1.9005,0,-1.9025,-1.9026,-1.9026,-1.899,-1.8988,-1.8987,-1.8986,-1.9004,-1.9006,-1.9007,0,0,0,0,0,0,0,0,0,0,0,0,0,-1.8932,-1.8934,-1.9005,-1.9005,-1.9006,-1.9025,-1.9026,-1.9026,-1.899,-1.8988,-1.8987,-1.8985,-1.9004,-1.9006,-1.9008,0,0,0,0,0,0,0,0,0,0,0,0,0,-1.8959,-1.8935,-1.9005,-1.899,-1.8989,-1.9025,-1.9026,-1.9026,-1.899,-1.8988,-1.8986,-1.8985,-1.9003,-1.9005,-1.9008,-1.9059,0,0,-1.9015,-1.9016,0,0,0,0,0,0,0,0,-1.8958,-1.8962,-1.8992,-1.8991,-1.899,-1.9003,-1.9007,-1.9037,-1.8991,-1.899,-1.8986,-1.8984,-1.9005,-1.9007,-1.9015,-1.906,-1.9061,-1.9015,-1.9017,-1.9018,-1.9019,0,0,0,0,0,0,0,-1.8956,-1.8961,-1.9013,-1.8992,-1.8991,-1.8981,-1.8983,-1.9012,-1.9007,-1.899,-1.8987,-1.899,-1.9004,-1.9013,-1.9015,-1.9061,-1.9015,-1.9018,-1.9019,-1.902,-1.9149,-1.9151,0,0,0,0,0,0,-1.8957,-1.896,-1.9012,-1.9014,-1.8969,-1.8984,-1.8986,-1.9001,-1.9007,-1.9006,-1.8991,-1.8988,-1.901,-1.9012,-1.9016,-1.9077,-1.9018,-1.902,-1.9022,-1.9147,-1.9149,-1.9152,0,0,0,0,0,0,-1.8955,-1.8962,-1.9012,-1.8986,-1.8992,-1.8987,-1.9004,-1.9002,-1.9011,-1.9008,-1.9007,-1.9001,-1.9008,-1.9012,-1.9049,-1.9077,-1.9021,-1.9024,-1.9145,-1.9148,-1.915,-1.9198,0,0,0,0,0,0,-1.8953,-1.8961,-1.8981,-1.8987,-1.8993,-1.9045,-1.9006,-1.9004,-1.9015,-1.9011,-1.9017,-1.9017,-1.9007,-1.9045,-1.9051,-1.9079,-1.9025,-1.9142,-1.9146,-1.915,-1.9194,-1.9203,-1.921,0,0,0,0,0,-1.8951,-1.8993,-1.8983,-1.8989,-1.9018,-1.9047,-1.905,-1.904,-1.9018,-1.9037,-1.9036,-1.9016,-1.9072,-1.9049,-1.9056,-1.9085,-1.914,-1.9145,-1.9149,-1.9191,-1.9201,-1.921,0,0,0,0,0,0,-1.899,-1.8994,-1.8982,-1.9028,-1.9038,-1.9041,-1.9065,-1.9051,-1.9066,-1.9062,-1.9046,-1.9048,-1.9088,-1.9089,-1.9064,-1.9134,-1.9103,-1.9109,-1.9132,-1.9142,-1.9149,-1.9148,-1.9027,0,0,0,0,0,-1.9005,-1.9029,-1.903,-1.907,-1.9076,-1.907,-1.9082,-1.9073,-1.9082,-1.9085,-1.9086,-1.9095,-1.9115,-1.9128,-1.9146,-1.9194,-1.9195,-1.9217,-1.9225,-1.9231,-1.9237,-1.9262,-1.9272,-1.9166,-1.9166,-1.9166,0,0,-1.9034,-1.9039,-1.9055,-1.9078,-1.9085,-1.9109,-1.9074,-1.9101,-1.9118,-1.9089,-1.9124,-1.9125,-1.9134,-1.9177,-1.9195,-1.918,-1.9266,-1.9237,-1.9242,-1.9244,-1.9268,-1.9278,-1.9287,-1.9169,-1.9169,-1.9168,0,0,-1.91,-1.9106,-1.9141,-1.9148,-1.9159,-1.9155,-1.9163,-1.9169,-1.9169,-1.9204,-1.9182,-1.9203,-1.9237,-1.9244,-1.9252,-1.9321,-1.9304,-1.9327,-1.9368,-1.9393,-1.9402,-1.9409,-1.9434,-1.9443,-1.9333,-1.9333,-1.9333,0,-1.9135,-1.9172,-1.916,-1.9189,-1.92,-1.9176,-1.921,-1.9218,-1.9233,-1.9241,-1.9223,-1.9265,-1.9269,-1.9314,-1.9331,-1.9338,-1.9347,-1.9327,-1.9401,-1.9409,-1.9415,-1.9439,-1.9449,-1.9336,-1.9335,-1.9335,-1.9335,0,-1.9215,-1.9241,-1.9267,-1.9284,-1.9298,-1.9329,-1.9322,-1.9337,-1.9326,-1.9324,-1.9359,-1.9364,-1.9382,-1.9392,-1.9381,-1.9434,-1.9424,-1.9404,-1.9372,-1.9429,-1.9451,-1.946,-1.934,-1.9339,-1.9338,-1.9337,0,0,-1.9307,-1.9318,-1.9328,-1.9335,-1.9345,-1.9364,-1.9394,-1.9413,-1.9427,-1.9438,-1.9463,-1.9492,-1.9474,-1.9483,-1.9473,-1.9495,-1.955,-1.9472,-1.9472,-1.9487,-1.961,-1.9626,-1.9636,-1.9538,-1.954,-1.9541,-1.9609,0,-1.9374,-1.9428,-1.9418,-1.9469,-1.9493,-1.947,-1.9496,-1.9504,-1.9503,-1.9522,-1.9519,-1.9541,-1.9514,-1.952,-1.9541,-1.9539,-1.9575,-1.9534,-1.9561,-1.9562,-1.9561,-1.9648,-1.9665,-1.9728,-1.9618,-1.9619,-1.962,0,-1.9459,-1.9475,-1.9529,-1.9536,-1.9545,-1.9569,-1.9586,-1.9605,-1.9613,-1.961,-1.9621,-1.9607,-1.9636,-1.9603,-1.9643,-1.9616,-1.9626,-1.9627,-1.9629,-1.9632,-1.9595,-1.9654,-1.9748,-1.9758,-1.9634,-1.9632,-1.9632,0,-1.9522,-1.9556,-1.9594,-1.9601,-1.9609,-1.9626,-1.963,-1.9637,-1.9649,-1.9664,-1.9671,-1.9688,-1.9698,-1.9711,-1.9701,-1.9678,-1.9743,-1.9709,-1.9742,-1.9742,-1.9757,-1.9757,-1.9856,-1.9762,-1.9762,-1.9762,-1.9762,0,-1.9598,-1.9632,-1.9622,-1.9645,-1.9683,-1.9671,-1.9708,-1.9709,-1.9715,-1.9738,-1.9718,-1.9739,-1.9725,-1.9745,-1.9737,-1.9772,-1.9776,-1.9774,-1.9772,-1.9777,-1.9777,-1.9784,-1.9779,-1.9765,-1.9764,-1.9764,-1.9763,0,-1.9675,-1.967,-1.9709,-1.9714,-1.9716,-1.9743,-1.9747,-1.9768,-1.9764,-1.9793,-1.9799,-1.9794,-1.9816,-1.9808,-1.9831,-1.9826,-1.987,-1.9862,-1.9868,-1.9866,-1.9899,-1.9897,-2.0007,-2.0021,-1.9918,-1.9919,-1.992,0,-1.9724,-1.9751,-1.9758,-1.9772,-1.9778,-1.9801,-1.9813,-1.9802,-1.9815,-1.9827,-1.9847,-1.9868,-1.9884,-1.992,-1.9918,-1.9936,-1.9928,-1.9965,-1.9931,-1.9935,-1.993,-1.9929,-1.9931,-1.9973,-1.9974,-1.9975,-1.9976,0,-1.9813,-1.9809,-1.9828,-1.9847,-1.9863,-1.9877,-1.9889,-1.9901,-1.989,-1.9906,-1.9929,-1.9942,-1.9966,-1.9987,-2.0003,-2.0006,-1.9989,-1.9987,-1.9995,-2.0001,-2.0004,-2.0003,-1.9888,-1.9984,-1.9983,-1.9983,-1.9982,-1.9982,-1.9878,-1.99,-1.991,-1.9932,-1.994,-1.9952,-1.9972,-1.9972,-1.9991,-2.0011,-2.0002,-2.0029,-2.0036,-2.0056,-2.0062,-2.0082,-2.0067,-2.0079,-2.0083,-2.0086,-2.0091,-2.0,-2.0084,-2.0084,-2.0084,-2.0084,-2.0083,0,-1.9966,-1.9971,-1.9992,-2.001,-2.0027,-2.001,-2.0023,-2.0038,-2.0062,-2.0071,-2.0088,-2.0114,-2.0134,-2.0134,-2.0152,-2.0168,-2.0161,-2.0174,-2.0173,-2.0174,-2.0103,-2.0094,-2.0179,-2.0179,-2.0179,-2.0179,-2.0179,-2.0179,-2.0014,-2.0051,-2.0049,-2.0089,-2.0093,-2.012,-2.0129,-2.0139,-2.0147,-2.0178,-2.0195,-2.0194,-2.0199,-2.0218,-2.0236,-2.0235,-2.0243,-2.0258,-2.0255,-2.0188,-2.0179,-2.017,-2.0162,-2.026,-2.026,-2.0325,-2.0325,-2.0326]}]]